Left ArrowRight Arrow

31.31129, -92.44514

Hourly Observations for June 17, 2024

Temp ( °F °C ) Dew Point ( °F °C ) Humidity (%) Winds ( mph kmh ) Pressure ( in mb ) Visibility ( mi km ) Precip ( " mm )
12:16 am 00:16 Mostly Clear 75 23.9 73 22.8 94 94 SE 7 11 29.92 1013 10 16 0.00 0.00
12:27 am 00:27 Mostly Cloudy 75 23.9 73 22.8 94 94 ESE 7 11 29.92 1013 10 16 0.00 0.00
12:53 am 00:53 Cloudy 75 23.9 73 22.8 94 94 E 7 11 29.93 1014 10 16 0.00 0.00
1:53 am 01:53 Cloudy 76 24.4 74 23.3 94 94 SE 7 11 29.92 1013 10 16 0.00 0.00
2:25 am 02:25 Partly Cloudy 75 23.9 74 23.3 96 96 SSE 6 9 29.91 1013 10 16 0.00 0.00
2:39 am 02:39 Mostly Cloudy 75 23.9 74 23.3 96 96 SE 7 11 29.91 1013 10 16 0.00 0.00
2:53 am 02:53 Cloudy 75 23.9 74 23.3 96 96 SSE 6 9 29.91 1013 10 16 0.00 0.00
3:53 am 03:53 Cloudy 76 24.4 75 23.9 97 97 SE 7 11 29.91 1013 8 13 0.00 0.00
4:53 am 04:53 Cloudy 76 24.4 75 23.9 97 97 SSE 6 9 29.92 1013 9 14 0.00 0.00
5:53 am 05:53 Cloudy 76 24.4 75 23.9 97 97 SE 6 9 29.93 1013 9 14 0.00 0.00
6:53 am 06:53 Cloudy 77 25 76 24.4 96 96 SE 5 7 29.93 1014 8 13 0.00 0.00
7:53 am 07:53 Cloudy 78 25.6 76 24.4 93 93 SE 8 13 29.94 1014 8 13 0.00 0.00
8:33 am 08:33 Mostly Cloudy 79 26.1 76 24.4 90 90 SSE 9 15 29.96 1014 7 11 0.00 0.00
8:41 am 08:41 Partly Cloudy 79 26.1 75 23.9 88 88 S 8 13 29.96 1014 8 13 0.00 0.00
8:53 am 08:53 Mostly Cloudy 79 26.1 75 23.9 88 88 S 9 15 29.97 1015 9 14 0.00 0.00
9:29 am 09:29 Mostly Cloudy 79 26.1 74 23.3 85 85 SW 5 7 29.96 1014 10 16 0.00 0.00
9:38 am 09:38 Partly Cloudy 79 26.1 74 23.3 85 85 SSW 5 7 29.97 1015 10 16 0.00 0.00
9:53 am 09:53 Mostly Sunny 79 26.1 74 23.3 85 85 S 5 7 29.97 1015 10 16 0.00 0.00
10:53 am 10:53 Sunny 81 27.2 71 21.7 72 72 Calm 29.96 1015 10 16 0.00 0.00
11:53 am 11:53 Mostly Sunny 83 28.3 72 22.2 70 70 SE 6 9 29.96 1015 10 16 0.00 0.00
12:36 pm 12:36 Mostly Cloudy 86 30 75 23.9 70 70 SSE 9 15 29.94 1014 10 16 0.00 0.00
12:53 pm 12:53 Cloudy 85 29.4 75 23.9 72 72 SE 14 22 29.94 1014 10 16 0.00 0.00
1:33 pm 13:33 Mostly Cloudy 86 30 76 24.4 72 72 SSE 10 17 29.92 1013 10 16 0.00 0.00
1:53 pm 13:53 Partly Cloudy 87 30.6 76 24.4 70 70 SSE 8 13 29.93 1013 10 16 0.00 0.00
2:14 pm 14:14 Mostly Cloudy 89 31.7 76 24.4 65 65 SSE 13 20 29.91 1013 10 16 0.00 0.00
2:53 pm 14:53 Mostly Cloudy 85 29.4 76 24.4 75 75 SSE 15 24 29.91 1013 10 16 0.01 0.25
3:53 pm 15:53 Mostly Cloudy with Nearby Thunderstorms 76 24.4 69 20.6 79 79 SSE 18 30 29.95 1014 9 14 0.01 0.13
3:58 pm 15:58 Mostly Cloudy with Nearby Thunderstorms 74 23.3 70 21.1 87 87 SSE 9 15 29.94 1014 2 3 0.11 2.79
4:09 pm 16:09 Cloudy with Thunderstorms 74 23.3 71 21.7 91 91 E 9 15 29.94 1014 2 3 0.17 4.32
4:17 pm 16:17 Cloudy with Thunderstorms 75 23.9 72 22.2 90 90 E 7 11 29.94 1014 5 8 0.17 4.32
4:27 pm 16:27 Cloudy with Nearby Thunderstorms 75 23.9 73 22.8 94 94 E 8 13 29.94 1014 10 16 0.17 4.32
4:40 pm 16:40 Mostly Cloudy 76 24.4 74 23.3 94 94 ESE 7 11 29.93 1013 10 16 0.17 4.32
4:53 pm 16:53 Partly Cloudy 77 25 74 23.3 90 90 ESE 9 15 29.93 1014 10 16 0.18 4.57
5:31 pm 17:31 Mostly Cloudy 78 25.6 74 23.3 87 87 E 6 9 29.93 1013 10 16 0.00 0.00
5:53 pm 17:53 Mostly Cloudy 77 25 75 23.9 94 94 E 3 6 29.93 1014 10 16 0.00 0.00
6:02 pm 18:02 Partly Cloudy 77 25 75 23.9 94 94 E 6 9 29.92 1013 10 16 0.00 0.00
6:53 pm 18:53 Sunny 79 26.1 73 22.8 82 82 SSE 12 19 29.94 1014 10 16 0.00 0.00
7:53 pm 19:53 Sunny 77 25 73 22.8 88 88 SSE 5 7 29.95 1014 10 16 0.00 0.00
8:53 pm 20:53 Clear 77 25 73 22.8 88 88 ESE 3 6 29.94 1014 10 16 0.00 0.00
9:53 pm 21:53 Mostly Clear 76 24.4 72 22.2 88 88 ESE 8 13 29.96 1014 10 16 0.00 0.00
10:53 pm 22:53 Clear 76 24.4 72 22.2 88 88 ESE 6 9 29.97 1015 10 16 0.00 0.00
11:35 pm 23:35 Mostly Cloudy 76 24.4 73 22.8 91 91 ESE 6 9 29.96 1014 10 16 0.00 0.00
11:53 pm 23:53 Cloudy 76 24.4 73 22.8 91 91 E 3 6 29.96 1014 10 16 0.00 0.00

Powered by Vaisala Xweather